Location: *
(38.9800°N, 16.0500°E)
Time: 17:36:31
(UTC+00:00)

CZ-2C R/B - Pass Details

Date: 07 April 2020
Orbit: 669 x 783 km, 98.2° (Epoch: 05 June)

Event Time Altitude Azimuth Distance (km) Brightness Sun altitude
Rises 03:54:20 0° 1° (N) 3,027 5.8 -7.7°
Reaches altitude 10° 03:56:47 10° 350° (N) 2,104 4.9 -7.3°
Maximum altitude 04:00:43 29° 291° (WNW) 1,212 3.1 -6.5°
Drops below altitude 10° 04:04:40 10° 231° (SW) 2,098 4.2 -5.8°
Enters shadow 04:07:05 - 220° (SW) 3,005 5.1 -5.3°
